DC1NF-7 Weather Reports


Display with metric or nautical units.
time (UTC)temp
F
wind
direction
speed
MPH
gust
MPH
rain 1hr
in
rain 24hr
in
rain mn
in
humidity
%
barometer
mb
20260508061543 49 74 3.0 6.0 0.00 0.02 0.00 89 1018.0
20260508060541 50 114 1.0 4.0 0.00 0.02 0.00 88 1018.0
20260508055537 50 74 2.0 4.0 0.00 0.02 0.00 88 1017.9
20260508054533 49 92 1.0 4.0 0.00 0.02 0.00 90 1017.9
20260508053526 47 222 1.0 2.0 0.00 0.02 0.00 92 1017.8
20260508052526 47 0.0 0.0 0.00 0.02 0.00 92 1017.7
20260508051521 46 0.0 0.0 0.00 0.02 0.00 93 1017.6
20260508050516 45 248 0.0 2.0 0.00 0.02 0.00 95 1017.6
20260508045616 45 225 0.0 2.0 0.00 0.04 0.00 96 1017.4
20260508044611 45 225 0.0 2.0 0.00 0.04 0.00 96 1017.3
20260508043605 45 234 1.0 2.0 0.00 0.04 0.00 96 1017.4
20260508042605 45 0.0 2.0 0.00 0.04 0.00 97 1017.4
20260508041559 45 0.0 0.0 0.00 0.04 0.00 97 1017.3
20260508040559 45 0.0 0.0 0.00 0.04 0.00 96 1017.2
20260508035557 45 0.0 0.0 0.00 0.04 0.00 96 1017.2
20260508034549 45 0.0 0.0 0.00 0.04 0.00 96 1017.2
20260508033545 46 0.0 0.0 0.00 0.04 0.00 96 1017.0
20260508032544 46 0.0 0.0 0.00 0.04 0.00 95 1017.1
20260508031537 47 0.0 0.0 0.00 0.04 0.00 95 1017.0
20260508030533 47 0.0 0.0 0.00 0.04 0.00 95 1017.0
20260508025530 47 0.0 0.0 0.00 0.04 0.00 95 1016.9
20260508024530 47 0.0 0.0 0.00 0.04 0.00 94 1017.0
20260508023526 48 90 0.0 2.0 0.00 0.04 0.00 94 1017.0
20260508022521 48 74 1.0 2.0 0.00 0.04 0.00 94 1017.0
20260508021617 48 0.0 0.0 0.00 0.04 0.00 94 1017.0
20260508020614 48 0.0 0.0 0.00 0.04 0.00 94 1017.1
20260508015609 48 0.0 0.0 0.00 0.04 0.00 94 1017.1
20260508014610 48 0.0 0.0 0.00 0.04 0.00 94 1017.1
20260508013602 48 0.0 0.0 0.00 0.04 0.00 94 1017.1
20260508012555 48 0.0 0.0 0.00 0.04 0.00 94 1017.1
20260508011552 48 0.0 0.0 0.00 0.04 0.00 93 1017.0
20260508010551 48 0.0 0.0 0.00 0.04 0.00 93 1017.2
20260508005543 49 0.0 0.0 0.00 0.04 0.00 93 1017.3
20260508004539 49 0.0 2.0 0.00 0.04 0.00 93 1017.2
20260508003536 49 0.0 0.0 0.00 0.04 0.00 93 1017.4
20260508002536 49 0.0 0.0 0.00 0.04 0.00 93 1017.4
20260508001532 49 79 1.0 2.0 0.00 0.05 0.00 92 1017.3
20260508000526 49 0.0 2.0 0.00 0.06 0.00 92 1017.4
20260507235529 49 0.0 0.0 0.00 0.06 0.00 92 1017.5
20260507234523 49 103 0.0 2.0 0.00 0.07 0.00 92 1017.5
20260507233524 49 88 1.0 2.0 0.00 0.09 0.00 92 1017.5
20260507232615 49 120 1.0 2.0 0.00 0.11 0.00 92 1017.5
20260507231608 50 68 0.0 2.0 0.00 0.12 0.00 92 1017.5
20260507230605 50 108 0.0 2.0 0.00 0.12 0.00 92 1017.4
20260507225602 50 248 0.0 2.0 0.00 0.12 0.00 92 1017.5
20260507224558 50 0.0 2.0 0.00 0.13 0.00 91 1017.4
20260507223554 50 0.0 0.0 0.00 0.13 0.00 91 1017.4
20260507222550 50 0.0 2.0 0.00 0.13 0.00 91 1017.3
20260507221549 50 225 0.0 2.0 0.00 0.13 0.00 90 1017.3
20260507220542 50 90 0.0 2.0 0.00 0.13 0.00 90 1017.3
20260507215540 50 0.0 0.0 0.00 0.13 0.13 90 1017.2
20260507214536 50 0.0 2.0 0.00 0.13 0.13 89 1017.2
20260507213530 50 248 0.0 2.0 0.00 0.13 0.13 89 1017.2
20260507212527 51 158 0.0 2.0 0.00 0.13 0.13 90 1017.1
20260507211527 51 90 1.0 2.0 0.00 0.13 0.13 89 1017.1
20260507210519 51 0.0 2.0 0.00 0.13 0.13 89 1017.2
20260507205515 51 225 0.0 2.0 0.00 0.13 0.13 90 1017.1
20260507204614 51 0.0 0.0 0.00 0.13 0.13 90 1017.0
20260507203611 51 0.0 2.0 0.00 0.13 0.13 89 1017.0
20260507202605 51 0.0 2.0 0.00 0.13 0.13 89 1017.0
20260507201601 51 113 0.0 2.0 0.00 0.13 0.13 89 1016.9
20260507200558 51 0.0 0.0 0.00 0.13 0.13 88 1016.7
20260507195555 51 0.0 0.0 0.00 0.13 0.13 88 1016.6
20260507194552 51 0.0 0.0 0.00 0.14 0.13 87 1016.6
20260507193548 51 232 0.0 2.0 0.00 0.15 0.13 87 1016.5
20260507192552 51 239 1.0 4.0 0.00 0.17 0.13 86 1016.3
20260507191542 51 249 2.0 4.0 0.00 0.18 0.13 86 1016.2
20260507190536 52 242 1.0 4.0 0.00 0.19 0.13 85 1016.1
20260507185533 52 253 0.0 2.0 0.00 0.20 0.13 85 1016.1
20260507184533 52 232 1.0 2.0 0.00 0.20 0.13 86 1016.1
20260507183526 52 241 1.0 4.0 0.00 0.20 0.13 85 1016.0
20260507182525 52 228 1.0 2.0 0.00 0.20 0.13 85 1015.8
20260507181517 52 236 0.0 2.0 0.00 0.20 0.13 84 1015.7
20260507180616 52 243 1.0 2.0 0.00 0.20 0.13 84 1015.6
20260507175609 52 241 1.0 4.0 0.00 0.20 0.13 84 1015.6
20260507174608 52 222 1.0 2.0 0.00 0.20 0.13 83 1015.7
20260507173605 52 209 1.0 4.0 0.00 0.20 0.13 84 1015.7
20260507172601 52 240 1.0 2.0 0.00 0.20 0.13 84 1015.5
20260507171555 52 251 2.0 4.0 0.00 0.20 0.13 83 1015.4
20260507170558 52 262 1.0 4.0 0.00 0.20 0.13 84 1015.4
20260507165546 52 242 3.0 6.0 0.00 0.20 0.13 84 1015.4
20260507164546 52 203 2.0 4.0 0.00 0.20 0.13 85 1015.4
20260507163539 52 250 2.0 6.0 0.00 0.20 0.13 84 1015.4
20260507162536 52 242 3.0 8.0 0.00 0.20 0.13 83 1015.3
20260507161536 52 243 3.0 8.0 0.00 0.20 0.13 83 1015.3
20260507160529 53 250 4.0 9.0 0.00 0.20 0.13 81 1015.4
20260507155526 53 279 3.0 7.0 0.00 0.20 0.13 80 1015.2
20260507154523 53 214 3.0 7.0 0.00 0.20 0.13 79 1015.1
20260507153519 53 229 2.0 4.0 0.00 0.20 0.13 81 1015.1
20260507152518 53 233 4.0 11.0 0.00 0.20 0.13 80 1015.0
20260507151614 53 213 3.0 4.0 0.00 0.20 0.13 80 1015.0
20260507150613 54 245 4.0 8.0 0.00 0.20 0.13 78 1015.0
20260507145604 53 198 1.0 4.0 0.00 0.20 0.13 80 1015.0
20260507144601 53 203 2.0 4.0 0.00 0.20 0.13 81 1015.0
20260507143600 53 224 2.0 6.0 0.00 0.20 0.13 80 1014.9
20260507142553 54 210 3.0 6.0 0.00 0.20 0.13 79 1015.1
20260507141549 54 205 4.0 9.0 0.00 0.20 0.13 77 1014.9
20260507140544 54 240 3.0 7.0 0.00 0.20 0.13 77 1014.8
20260507135540 54 233 4.0 11.0 0.00 0.20 0.13 77 1014.9
20260507134538 54 258 5.0 11.0 0.00 0.20 0.13 77 1014.9
20260507133533 54 233 6.0 9.0 0.00 0.20 0.13 78 1014.9
20260507132532 53 237 3.0 8.0 0.00 0.20 0.13 82 1014.8
20260507131526 52 267 4.0 7.0 0.00 0.20 0.13 84 1014.8
20260507130525 51 256 2.0 7.0 0.00 0.20 0.13 86 1014.8
20260507125521 52 229 4.0 8.0 0.00 0.20 0.13 85 1014.9
20260507124614 52 239 4.0 9.0 0.00 0.20 0.13 87 1014.7
20260507123610 51 233 3.0 7.0 0.00 0.20 0.13 88 1014.6
20260507122611 51 245 2.0 8.0 0.00 0.20 0.13 89 1014.5
20260507121604 51 175 3.0 6.0 0.00 0.20 0.13 90 1014.4
20260507120601 51 236 5.0 8.0 0.00 0.20 0.13 90 1014.4
20260507115601 51 235 5.0 11.0 0.00 0.20 0.13 89 1014.4
20260507114554 52 246 4.0 9.0 0.00 0.20 0.13 89 1014.3
20260507113553 51 225 5.0 9.0 0.00 0.20 0.13 90 1014.3
20260507112546 51 224 4.0 8.0 0.00 0.20 0.13 93 1014.1
20260507111550 51 257 5.0 9.0 0.00 0.20 0.13 92 1014.1
20260507110538 52 251 5.0 11.0 0.00 0.20 0.13 89 1014.1
20260507105535 51 221 3.0 7.0 0.00 0.20 0.13 91 1014.0
20260507104532 51 242 5.0 11.0 0.00 0.20 0.13 91 1014.0
20260507103528 51 244 4.0 9.0 0.00 0.20 0.13 91 1013.9
20260507102524 51 232 3.0 6.0 0.00 0.20 0.13 92 1013.9
20260507101523 51 218 5.0 9.0 0.00 0.20 0.13 93 1013.8
20260507100515 51 253 5.0 11.0 0.00 0.20 0.13 92 1013.7
20260507095614 51 231 4.0 9.0 0.00 0.20 0.13 92 1013.7
20260507094607 51 200 4.0 8.0 0.00 0.20 0.13 92 1013.4
20260507093607 52 234 4.0 8.0 0.01 0.20 0.13 91 1013.4
20260507092601 52 208 3.0 6.0 0.01 0.20 0.13 90 1013.2
20260507091558 51 235 3.0 6.0 0.01 0.20 0.13 90 1013.3
20260507090553 51 232 4.0 8.0 0.01 0.20 0.13 92 1013.1
20260507085549 51 243 2.0 4.0 0.01 0.20 0.13 94 1013.0
20260507084545 50 249 2.0 4.0 0.01 0.20 0.13 94 1012.9
20260507083545 51 251 4.0 6.0 0.00 0.19 0.12 93 1012.7
20260507082541 51 225 4.0 7.0 0.00 0.19 0.12 90 1012.6
20260507081538 51 243 2.0 6.0 0.00 0.19 0.12 89 1012.4
20260507080532 51 250 3.0 4.0 0.00 0.19 0.12 91 1012.3
20260507075529 51 249 4.0 7.0 0.00 0.19 0.12 90 1012.3
20260507074529 51 273 3.0 8.0 0.00 0.19 0.12 90 1012.2
20260507073525 51 230 3.0 7.0 0.00 0.19 0.12 89 1012.0
20260507072520 51 265 3.0 7.0 0.00 0.19 0.12 90 1011.9
20260507071613 51 223 4.0 6.0 0.01 0.19 0.12 90 1011.9
20260507070618 51 234 4.0 8.0 0.01 0.19 0.12 91 1011.8
20260507065607 51 236 4.0 7.0 0.01 0.19 0.12 91 1011.6
20260507064607 51 237 3.0 6.0 0.01 0.19 0.12 92 1011.5
20260507063603 51 240 4.0 8.0 0.01 0.19 0.12 93 1011.3
20260507062556 51 248 4.0 7.0 0.01 0.19 0.12 92 1011.3